Weather in Ust-Nem

Russia / Komi Republic     61°38′01″N   54°52′39″E
temp.,
°C
wind,
m/s
gust,
m/s
humid.,
%
clouds,
%
prec.,
mm/h
press.,
hPa
HPBL,
m
12 april, mon
mon1200:00−1sw29945 0.0 1028175
03:00−1wsw312910 0.0 1030301
06:00+1wsw412865 0.0 1032613
09:00+4w510725 0.0 1034791
12:00+6w510621 0.0 10351208
15:00+7w510675 0.0 10361317
18:00+2wsw27855 0.0 1037128
21:000sw3119021 0.0 1038204
13 april, tue
tue1300:00−1ssw299062 0.0 1037157
03:000ssw31383100 0.0 1037297
06:00+2sw4137813 0.0 1036412
09:00+6sw41269100 0.0 1034499
12:00+8ssw41065100 0.0 1032630
15:00+8ssw51277100 0.0 1029619
18:00+7ssw51484100 0.0 1027636
21:00+6sw51591100 0.1 1025500
14 april, wed
wed1400:00+6sw41296100 0.0 1025371
03:00+6sw31097100 0.0 1025295
06:00+6ssw3998100 0.0 1024306
09:00+10sw4888100 0.0 1023422
12:00+15sw596791 0.0 1022999
15:00+16sw5116275 0.0 10201330
18:00+13sw5136538 0.0 1019471
21:00+10sw516745 0.0 1018488
15 april, thu
thu1500:00+9sw51579100 0.0 1016519
03:00+8sw41383100 0.0 1016459
06:00+9wsw41181100 0.0 1016665
09:00+4n3790100 0.1 1019561
12:00+3nw2596100 0.6 1021439
15:00+6nw1469100 0.9 1021948
18:00+5nne3764100 0.0 1021304
21:00+3nne2771100 0.0 1021269
16 april, fri
fri1600:00+1ne3880100 0.0 1022379
03:00−1ne3878100 0.0 1022379
06:00−1ne476287 0.0 1021456
09:00+2ne356071 0.0 10191004
12:00+3ne4563100 0.1 10191206
15:00+1ne5774100 0.3 1019933
18:00+1ne4761100 0.1 10191066
21:00−2ne486077 0.1 1019668